COSMOS 252 DEB *, 3686

Orbit data source: Space-Track

COSMOS 252 DEB *, 3686 is space debris in LEO originally from a launch on Fri, 01 Nov 1968 UTC launched from the Tyuratam Missile And Space Complex (TTMTR). Debris objects in space refer to the collection of defunct objects orbiting the Earth. Examples of debris include non-operational satellites, rocket bodies, and fragments generated from explosions, collisions, or faulty payload assembly.

Loading next visibility...
COSMOS 252 DEB * details
Identifier
3686, 1968-097AD
Orbit
LEO
Last TLE update7 hours ago
Origin
Flag of CISPKO (CIS)
ManufacturerUnknown
MissionSpacecraft
Bus & MotorUnknown
MassUnknown
Launch date (UTC)
1968-11-01 (56 years ago)
Launch vehicleUnknown
Launch site
Tyuratam Missile And Space Complex (TTMTR)
Object type
Payload
Rocket body
Debris
Shape & HBRUnknown
Radar Cross SectionSmall (<0.1 m²)

Expand to show TLE details & history

TLE from 7 hours ago
0 COSMOS 252 DEB *
1  3686U 68097AD  24361.12355200  .00003647  00000-0  33719-2 0  9992
2  3686  62.2607  38.9853 0655089  52.2077 313.6416 13.14188294626537
Epoch: 2024-12-26T02:57Z
Definitive object data (Epoch: 2024-12-26T02:57:54.892Z)
Latitude-0.00005°
Longitude-100.6009°
Altitude883.928 km
Speed7.568 km/s
True Right ascension02h 35m 56s
True Declination0° 00' 00"
Sunlit
Object was in full shadow at TLE epoch
Visualization TLE readout
Latitude-58.3125°
Longitude-159.30713°
Altitude1,498.292 km
Speed6.987 km/s
Apparent Right ascension21h 54m 24s
Apparent Declination-50° 25' 20"
Sunlit
Object is in daylight
Visualization observer readout
Local Sidereal Time09:14:57
Azimuth210.081° SW
Elevation-77.426°
Doppler factor1
Orbital elements
Apogee altitude1,702.809 km
Perigee altitude709.155 km
Semi-major axis7,584.119 km
Eccentricity0.0655089
Inclination62.2607°
RAAN38.9853°
Arg. of periapsis52.2077°
True anomaly307.89433°
Mean anomaly313.6416°
Eccentric anomaly310.80032°
Mean motion3.28614 °/min
BSTAR0.0033719
Orbital period109.55 mins
Loading maneuver chart data...

COSMOS 252 DEB * Visibility forecast

Observer location: undefined°, undefined

Span
Click to sort rows by Start time (UTC) header in descending order
Start Az.
Max El. time (UTC)
Max El. Az.
Max El.
End time (UTC)
End Az.
4 mins2024-12-26 10:44:52.163Z13.239° NNE2024-12-26 10:46:52.163Z34.202° NE12.179°2024-12-26 10:48:52.163Z52.81° ENE
11 mins2024-12-26 12:36:52.163Z342.993° N2024-12-26 12:40:52.163Z50.043° ENE37.409°2024-12-26 12:47:52.163Z123.361° SE
11 mins2024-12-26 14:29:52.163Z295.86° NW2024-12-26 14:33:52.163Z246.243° WSW29.609°2024-12-26 14:40:52.163Z182.722° SSW
8 mins2024-12-27 04:40:52.163Z213.944° SW2024-12-27 04:44:52.163Z37.632° NE43.923°2024-12-27 04:48:52.163Z35.873° NE
4 mins2024-12-27 06:36:52.163Z307.668° NW2024-12-27 06:37:52.163Z321.287° NNW14.231°2024-12-27 06:40:52.163Z359.907° N
|